www.pogodaiklimat.ru

Погода и климат >> Архив погоды >> Парагвай >> Mariscal Estigar


ПОГОДА в Mariscal Estigar

  • Прогноз погоды в Mariscal Estigar
  • Монитор погоды в Mariscal Estigar
  • Климат города

АРХИВ ПОГОДЫ в Mariscal Estigar

Время (UTC), дата Ветер
(напр.,м/с)
 
Видим.   Явления Облачность Т
(С)
Тd
(С)
f
(%)
Тe
(С)
Тes
(С)
Комфортность P
(гПа)
Po
(гПа)
Тmin
(С)
Tmax
(С)
R
(мм)
R24
(мм)
S
(см)
15 8.11 ЮВ 2 20 км 3/3 1050 м
[Cu hum Ci fib]
+29.8 +21.1 60 +37 +52 опасность
солнечного
удара
1012.7 993.8
18 8.11 ЮВ 5 20 км 3/3 1200 м
[Cu hum Ci fib]
+33.0 +19.1 44 +38 +44 очень
душно
1010.0 991.3
21 8.11 В 2 20 км 3/3 1200 м
[Cu med, cong]
+33.0 +17.7 40 +37 +39 очень
душно
1007.9 989.2
00 9.11 штиль 0 20 км ясно +28.0 +20.5 64 +35 +35 очень
душно
1008.8 989.9 +34.0
03 9.11 штиль 0 20 км ясно +26.4 +21.4 74 +34 +34 очень
душно
1010.4 991.4
06 9.11 штиль 0 20 км ясно +24.6 +22.0 85 +32 +32 очень
душно
1009.7 990.5
09 9.11 штиль 0 20 км 3/0 2000 м
[Ac trans]
+23.2 +21.3 89 +31 +31 очень
душно
1009.4 990.1
12 9.11 СВ 5 20 км 3/0 2000 м
[Ac trans]
+26.4 +21.2 73 +33 +36 очень
душно
1011.3 992.2 +23.0
15 9.11 СВ 5 20 км 4/3 1200 м
[Cu hum Ac trans]
+30.8 +22.1 60 +40 +46 очень
душно
1010.3 991.5
18 9.11 СВ 5 20 км 3/3 1200 м
[Cu med, cong]
+32.8 +21.0 50 +40 +46 очень
душно
1007.3 988.7
21 9.11 В 2 20 км 3/3 1200 м
[Cu med, cong]
+32.8 +19.7 46 +39 +41 очень
душно
1005.2 986.6
06 10.11 СВ 2 20 км ясно +24.8 +22.0 84 +32 +32 очень
душно
1006.7 987.6
09 10.11 СВ 4 20 км ясно +23.2 +21.5 90 +31 +31 очень
душно
1007.0 987.8
12 10.11 СВ 8 20 км ясно +26.6 +21.3 73 +34 +35 очень
душно
1009.8 990.7 +23.4
15 10.11 СВ 7 20 км 3/3 1200 м
[Cu hum]
+33.6 +17.0 37 +37 +41 очень
душно
1005.3 986.7
18 10.11 СВ 5 20 км 5/5 1200 м
[Cu Sc]
+35.4 +21.9 46 +44 +48 опасность
перегрева
1002.3 983.9
21 10.11 СВ 6 20 км 3/3 1200 м
[Cu Sc]
+35.0 +21.9 47 +44 +44 опасность
перегрева
1000.0 981.6
03 11.11 СВ 4 20 км 3/0 2000 м
[Ac trans]
+30.0 +24.2 71 +42 +42 опасность
перегрева
1002.2 983.5
09 11.11 СВ 2 20 км ясно +27.0 +24.1 84 +37 +37 очень
душно
1002.5 983.6
12 11.11 СВ 8 20 км ясно +30.6 +23.8 67 +42 +43 опасность
перегрева
1003.5 984.9 +26.6
15 11.11 С 4 20 км 4/4 1200 м
[Cu Sc]
+35.0 +18.4 38 +39 +48 очень
душно
1002.8 984.4
18 11.11 СВ 8 20 км 6/6 1200 м
[Cu Sc]
+37.6 +22.1 41 +46 +47 опасность
перегрева
1000.6 982.5
21 11.11 С 6 20 км 4/4 1200 м
[Cu Sc]
+36.4 +21.2 41 +43 +44 опасность
перегрева
999.6 981.3
00 12.11 СВ 6 20 км ясно +32.6 +23.0 57 +43 +43 опасность
перегрева
1001.4 982.9 +38.0
06 12.11 СВ 5 20 км ясно +28.4 +23.5 75 +39 +39 очень
душно
1002.4 983.6
09 12.11 СВ 3 20 км ясно +26.6 +24.1 86 +37 +37 очень
душно
1002.4 983.5
12 12.11 С 8 20 км 3/1 1200 м
[Cu hum Ci fib]
+31.0 +22.4 60 +40 +41 очень
душно
1002.8 984.2 +26.6
15 12.11 С 9 20 км 4/3 1200 м
[Cu hum Cs]
+34.6 +22.1 48 +43 +45 опасность
перегрева
1002.5 984.1
18 12.11 С 8 20 км 6/5 1200 м
[Cu Sc Cs]
+37.4 +22.2 42 +46 +48 опасность
перегрева
999.7 981.6
21 12.11 СВ 8 20 км 5/4 1200 м
[Cu Sc Ci fib]
+36.8 +21.1 40 +44 +44 опасность
перегрева
998.1 979.8
00 13.11 СВ 8 20 км 4/0
[Cs]
+33.4 +22.5 53 +43 +43 опасность
перегрева
999.6 981.1 +38.0
03 13.11 СВ 7 20 км 3/0
[Cs]
+31.6 +23.3 61 +42 +42 опасность
перегрева
1001.0 982.4
09 13.11 С 7 20 км 4/0
[Cs]
+27.8 +22.0 71 +36 +36 очень
душно
1003.3 984.5
12 13.11 С 6 20 км 5/3 1200 м
[Cu hum Ac cast Cs]
+29.6 +21.4 61 +37 +39 очень
душно
1005.0 986.2 +27.5
15 13.11 С 7 20 км 6/4 800 м
[Cu Sc Ac cast Cs]
+32.0 +21.9 55 +41 +43 опасность
перегрева
1004.6 986.0
18 13.11 З 5 20 км 5/3 800 м
[Cu med, cong Ac cuf Cs]
+35.4 +23.4 50 +46 +51 опасность
перегрева
1002.3 983.9
21 13.11 ЮЗ 5 20 км зарница 5/4 800 м
[Cb cap Ac cuf]
+32.0 +23.5 61 +43 +44 опасность
перегрева
1002.4 983.8
00 14.11 ЮЗ 5 20 км зарница {гроза} 4/4 900 м
[Cb cap]
+26.2 +22.8 82 +35 +35 очень
душно
1005.4 986.4 +36.2
03 14.11 Ю 5 3000 м гроза, ливневой дождь 10/6 180 м
[Cb cap As op]
+24.0 +22.7 92 +31 +31 очень
душно
1007.4 988.2 20
06 14.11 Ю 7 3000 м гроза, ливневой дождь 10/6 180 м
[Cb cap As op]
+22.0 +20.7 92 +28 +28 душно 1007.8 988.5 20
09 14.11 Ю 5 20 км 10/8 540 м
[Sc Ac As]
+21.2 +19.5 90 +26 +26 душно 1008.9 989.5 7
12 14.11 ЮЗ 5 20 км 10/8 540 м
[Sc Ac As]
+21.0 +19.2 89 +26 +26 душно 1012.8 993.3 +20.5 47
15 14.11 Ю 5 20 км 10/8 600 м
[Sc Ac As]
+22.2 +17.1 73 +27 +27 душно 1013.7 994.3
18 14.11 Ю 2 20 км 10/4 660 м
[Sc Ac As]
+24.0 +17.6 67 +28 +31 душно 1011.2 991.9
00 15.11 штиль 0 20 км 10/10 660 м
[Sc]
+23.2 +19.8 81 +30 +30 очень
душно
1011.2 991.9 +26.2
06 15.11 штиль 0 20 км 10/8 750 м
[Sc Ac As]
+22.0 +19.1 84 +27 +27 душно 1011.4 992.0
09 15.11 Ю 2 20 км 6/0 2000 м
[Ac und]
+21.0 +19.4 91 +26 +26 душно 1010.5 991.0
12 15.11 Ю 3 20 км 3/0 2000 м
[Ac cuf]
+25.2 +18.7 67 +30 +35 душно 1012.1 992.9 +21.0

 

Местоположение метеостанции Mariscal Estigar (Парагвай): широта -22.01 долгота -60.60 высота над уровнем моря 172 м.

В архиве по умолчанию представлена погода в Mariscal Estigar за последнюю неделю. Архивные данные за месяц целиком и за предыдущие месяцы, начиная с января 2011 года, Вы можете получить, выбрав интересующий диапазон дат из раскрывающегося списка и нажав кнопку "Ввод!".


*Определитесь, кто Вы:
робот инопланетянин человек

Внимание! Время в таблицах - всемирное. Для получения местного времени необходимо прибавить поправку, которая в Mariscal Estigar равна -4 ч.

Смотрите также архив погоды в соседних городах и на ближайших метеорологических станциях:

Погода в Prats-Gil (Парагвай) (120 км)
Погода в Pozo Colorado (Парагвай) (232 км)
Погода в Puerto Casado (Парагвай) (284 км)
Погода в Las Lomitas (Аргентина) (299 км)
Погода в Villamontes (Боливия) (307 км)
Погода в Yacuiba (Боливия) (315 км)
Погода в Tartagal (Аргентина) (336 км)
Погода в Gral. Bruguez (Парагвай) (355 км)
Погода в Concepcion (Парагвай) (373 км)
Погода в Camiri (Боливия) (378 км)

Пояснения к столбцам:

Ветер - указаны скорость ветра в м/с - средняя за 10 мин, порывы в срок и между сроками (в фигурных скобках) и направление, откуда дует ветер: С - северный, СВ - северо-восточный, В - восточный, ЮВ - юго-восточный, Ю - южный, ЮЗ - юго-западный, З - западный, СЗ - северо-западный.
Видимость - горизонтальная дальность видимости в метрах или километрах. При видимости от 1 до 10 км при отсутствии осадков обычно наблюдается дымка, при ухудшении видимости до 1 км и менее - туман. В сухую погоду видимость может ухудшаться дымом, пылью или мглою.
Явления - указаны атмосферные явления, наблюдавшиеся в срок или в последний час перед сроком; фигурными скобками обозначены явления, наблюдавшиеся между сроками (за 1-3 часа до срока); квадратными скобками обозначены град или гололедные отложения с указанием их диаметра в мм.
Облачность - указаны через наклонную черту общая и нижняя облачность в баллах и высота нижней границы облаков в метрах; квадратными скобками обозначены формы облаков: Ci - перистые, Cs - перисто-слоистые, Cc - перисто-кучевые, Ac - высококучевые, As - высокослоистые, Sc - слоисто-кучевые, Ns - слоисто-дождевые, Cu - кучевые, Cb - кучево-дождевые. Подробнее классификацию облаков см. в Атласе облаков (PDF).
T - Температура воздуха - температура, измеренная на высоте 2 м над землей.
Td - Температура точки росы - температура, при понижении до которой содержащийся в воздухе водяной пар достигнет насыщения.
f - Относительная влажность воздуха - влажноcть воздуха, измеренная на высоте 2 м над землей.
Te - Эффективная температура - температура, которую ощущает одетый по сезону человек в тени. Характеристика душности погоды. При расчете учитывается влияние влажности воздуха и скорости ветра на теплоощущения человека.
Tes - Эффективная температура на солнце - температура, которую ощущает человек, с поправкой на солнечный нагрев. Характеристика знойности погоды. Зависит от высоты солнца над горизонтом, облачности и скорости ветра. Ночью, в пасмурную погоду, а также при ветре 12 м/с и более поправка равна нулю.
P - Атмосферное давление - приведенное к уровню моря атмосферное давление.
Po - Атмосферное давление - измеренное на уровне метеостанции атмосферное давление.
Tmin - Минимальная температура - минимум температуры воздуха на высоте 2 м над землей.
Tmax - Максимальная температура - максимум температуры воздуха на высоте 2 м над землей.
R - Количество осадков - Количество выпавших осадков за период времени, мм. При наведении курсора мыши на число - период времени, за который выпало указанное количество осадков.
R24 - Количество осадков - Количество выпавших осадков за 24 часа, мм.
S - Снежный покров - Высота снежного покрова, см. При наведении курсора мыши на число - состояние снежного покрова и степень покрытия местности в баллах.